Location: Fayetteville
(35.0530°N, 78.8790°W)
Time: 15:11:11
(UTC-04:00)

Hubble Space Telescope - Visible Passes

Search period start: 07 August 2020 00:00
Search period end: 17 August 2020 00:00
Orbit: 536 x 540 km, 28.5° (Epoch: 07 August)

Date Brightness Start Highest point End Pass type
(mag) Time Alt. Az. Time Alt. Az. Time Alt. Az.
08 Aug 3.1 05:20:05 10° S 05:21:34 12° SSE 05:23:02 10° SE visible
09 Aug 2.9 05:09:28 13° S 05:10:45 14° SSE 05:12:59 10° SE visible
10 Aug 2.6 04:59:20 16° S 04:59:56 17° SSE 05:02:39 10° ESE visible
11 Aug 2.5 04:49:11 20° SSE 04:49:11 20° SSE 04:52:10 10° ESE visible
12 Aug 2.5 04:39:02 21° SSE 04:39:02 21° SSE 04:41:36 10° ESE visible
13 Aug 2.6 04:28:55 21° SE 04:28:55 21° SE 04:30:59 10° ESE visible
13 Aug 1.8 06:04:37 10° WSW 06:08:20 32° S 06:12:03 10° ESE visible
14 Aug 2.8 04:18:49 19° SE 04:18:49 19° SE 04:20:20 10° ESE visible
14 Aug 1.8 05:54:09 11° WSW 05:57:34 32° S 06:01:16 10° ESE visible
15 Aug 3.2 04:08:46 15° ESE 04:08:46 15° ESE 04:09:38 10° ESE visible
15 Aug 1.8 05:44:06 15° WSW 05:46:48 30° S 05:50:27 10° SE visible
16 Aug 3.6 03:58:47 11° ESE 03:58:47 11° ESE 03:58:56 10° ESE visible
16 Aug 1.9 05:34:07 19° SW 05:36:02 28° S 05:39:36 10° SE visible
